Location: Alafon
(8.4500°N, 4.2333°E)
Time: 22:26:36
(UTC+00:00)

Vanguard 2 - Pass Details

Date: 05 August 2021
Orbit: 553 x 2937 km, 32.9° (Epoch: 26 September)

Event Time Altitude Azimuth Distance (km) Brightness Sun altitude
Rises 09:45:00 0° 304° (NW) 3,825 10.9 58.6°
Reaches altitude 10° 09:47:13 10° 305° (NW) 3,101 10.6 59.2°
Maximum altitude 09:55:13 89° 32° (NNE) 1,678 10.6 61.0°
Drops below altitude 10° 10:09:03 10° 125° (SE) 5,089 12.1 64.2°
Sets 10:13:44 0° 125° (SE) 6,378 12.4 65.3°
